Torna al catalogo

CZ-6A R/B

AttivoSSO
NORAD 60214·ROCKET BODY·🇨🇳 China

Lanciato Jul 4, 2024 da Taiyuan Satellite Launch Center

Loading…

Prossimi Passaggi (prossime 24 ore)

TLE

AggiornatoSource: Space-Track

Epoca: Sep 14, 2026, 13:26 UTC

1 60214U 24126D   26257.56032952  .00002936  00000-0  15402-3 0  9997
2 60214  97.7704 290.4403 0067017 171.1536 189.0894 15.14663487120968

Traccia CZ-6A R/B in tempo reale con AllMySat

Download on the App Store